Cortez, CO

6:16 PM MST on November 15, 2019 (GMT -0700)
Cortez Municipal

Weather History for KCEZ - September, 2019

Change the Weather History Date:

Thursday, September 5, 2019

  Actual Average Record
Temperature  
Mean Temperature 73 °F 64 °F  
Max Temperature 94 °F 81 °F 94 °F (2019)
Min Temperature 51 °F 47 °F 34 °F (2004)
Degree Days  
Heating Degree Days 0 2  
Month to date heating degree days 0 9  
Since 1 July heating degree days 0 21  
Cooling Degree Days 8 1  
Month to date cooling degree days 41 8  
Year to date cooling degree days 521 417  
Growing Degree Days 22 (Base 50)    
Moisture  
Dew Point 45 °F    
Average Humidity 50    
Maximum Humidity 83    
Minimum Humidity 16    
Precipitation  
Precipitation 0.00 in 0.05 in 0.06 in (2015)
Month to date precipitation 0.07 0.24  
Year to date precipitation 9.85 8.68  
Sea Level Pressure  
Sea Level Pressure 30.06 in    
Wind  
Wind Speed 5 mph (ENE)    
Max Wind Speed 14 mph    
Max Gust Speed 20 mph    
Visibility 10 miles    
Events      
T = Trace of Precipitation, MM = Missing Value Source: NWS Daily Summary

Daily Weather History Graph

Daily Weather History Graph

Search for Another Location

Airport or City:

Astronomy

Sep. 05, 2019 Rise Set
Actual Time 6:48 AM MDT 7:37 PM MDT
Civil Twilight 6:21 AM MDT 8:04 PM MDT
Nautical Twilight 5:50 AM MDT 8:35 PM MDT
Astronomical Twilight 5:17 AM MDT 9:07 PM MDT
Moon 1:49 PM MDT (9/5) No Moon Set
Length of Visible Light 13h 42m
Length of Day
12h 49m
Waxing Crescent, 46% of the Moon is Illuminated
Sep 5
Waxing Crescent
Sep 5
First Quarter
Sep 13
Full
Sep 21
Last Quarter
Sep 28
New

Hourly Weather History & Observations

Time (MDT) Temp. Dew Point Humidity Pressure Visibility Wind Dir Wind Speed Gust Speed Precip Events Conditions
12:53 AM 57.0 °F 51.1 °F 81% 30.05 in 10.0 mi South 4.6 mph - N/A   Clear
1:53 AM 55.0 °F 50.0 °F 83% 30.06 in 10.0 mi East 4.6 mph - N/A   Clear
2:53 AM 55.9 °F 46.9 °F 72% 30.06 in 10.0 mi Calm Calm - N/A   Clear
3:53 AM 55.0 °F 46.9 °F 74% 30.06 in 10.0 mi Variable 3.5 mph - N/A   Clear
4:53 AM 57.9 °F 45.0 °F 62% 30.07 in 10.0 mi Calm Calm - N/A   Clear
5:53 AM 54.0 °F 45.0 °F 72% 30.11 in 10.0 mi East 3.5 mph - N/A   Clear
6:53 AM 52.0 °F 45.0 °F 77% 30.14 in 10.0 mi NE 4.6 mph - N/A   Clear
7:53 AM 57.0 °F 48.0 °F 72% 30.17 in 10.0 mi East 3.5 mph - N/A   Clear
8:53 AM 68.0 °F 46.9 °F 47% 30.16 in 10.0 mi Calm Calm - N/A   Clear
9:53 AM 75.0 °F 48.0 °F 38% 30.14 in 10.0 mi Calm Calm - N/A   Clear
10:53 AM 81.0 °F 46.0 °F 29% 30.13 in 10.0 mi Calm Calm - N/A   Clear
11:53 AM 84.0 °F 46.0 °F 26% 30.11 in 10.0 mi SW 6.9 mph - N/A   Clear
12:53 PM 88.0 °F 45.0 °F 22% 30.09 in 10.0 mi West 6.9 mph - N/A   Clear
1:53 PM 90.0 °F 42.1 °F 19% 30.06 in 10.0 mi Variable 5.8 mph - N/A   Clear
2:53 PM 91.0 °F 41.0 °F 17% 30.02 in 10.0 mi NNW 8.1 mph - N/A   Clear
3:53 PM 91.9 °F 42.1 °F 18% 30.00 in 10.0 mi Variable 4.6 mph - N/A   Clear
4:53 PM 91.9 °F 41.0 °F 17% 29.97 in 10.0 mi West 9.2 mph - N/A   Clear
5:53 PM 91.0 °F 39.9 °F 17% 29.97 in 10.0 mi West 10.4 mph - N/A   Clear
6:53 PM 88.0 °F 39.0 °F 18% 29.99 in 10.0 mi West 8.1 mph - N/A   Clear
7:53 PM 72.0 °F 48.0 °F 43% 30.03 in 10.0 mi South 4.6 mph - N/A   Clear
8:53 PM 70.0 °F 44.1 °F 39% 30.03 in 10.0 mi East 4.6 mph - N/A   Clear
9:53 PM 66.0 °F 43.0 °F 43% 30.03 in 10.0 mi ENE 6.9 mph - N/A   Clear
10:53 PM 64.9 °F 41.0 °F 42% 30.03 in 10.0 mi NE 5.8 mph - N/A   Clear
11:53 PM 61.0 °F 45.0 °F 56% 30.03 in 10.0 mi ENE 4.6 mph - N/A   Clear